Tracking 31027 objects as of 19-Jul-2025
HD Live streaming from Space Station
objects crossing your sky now

TITAN 3C TRANSTAGE DEB

Track TITAN 3C TRANSTAGE DEB now!


NORAD ID: 5515
Int'l Code: 1965-108M
Perigee: 1,080.9 km
Apogee: 30,194.9 km
Inclination: 27.9 °
Period: 541.6 minutes
Semi major axis: 22008 km
RCS: 0.0962 m2 (small)
Launch date: December 21, 1965
Source: United States (US)
Launch site: AIR FORCE EASTERN TEST RANGE (AFETR)

Note: This is SATELLITE DEBRIS
Your satellite tracking list
STARLINK-5088
Track 1 satellite(s)




NASA's NSSDC Master Catalog

Two Line Element Set (TLE):
1  5515U 65108M   25199.89502157 -.00000011  00000-0  00000+0 0  9991
2  5515  27.8624  57.0297 6614159 139.0565 355.9573  2.65892206210413
Source of the keplerian elements: AFSPC